This is the latest recevied weather packets stored in our database for station/object KD2SIG. If no packets are shown the sender has not sent any weather packets the latest 1 day(s).
| Time | Temp. | Humidity | Pressure | Rain* | Wind** | Luminosity | Snow |
|---|---|---|---|---|---|---|---|
| 1778033130 | 7.78° C | 95% | 1011 hPa | 3.05 mm | 0.45 m/s, 173° | 0 W/m² | - |
| 1778032828 | 7.78° C | 95% | 1011.1 hPa | 3.05 mm | 0 m/s | 0 W/m² | - |
| 1778032525 | 7.78° C | 95% | 1011 hPa | 3.05 mm | 0.89 m/s, 271° | 0 W/m² | - |
| 1778032222 | 8.33° C | 95% | 1010.8 hPa | 3.05 mm | 0.89 m/s, 225° | 0 W/m² | - |
| 1778031919 | 8.33° C | 95% | 1010.5 hPa | 3.05 mm | 0.45 m/s, 253° | 0 W/m² | - |
| 1778031615 | 8.33° C | 95% | 1010.7 hPa | 1.78 mm | 0.45 m/s, 263° | 0 W/m² | - |
| 1778031313 | 8.33° C | 94% | 1010.4 hPa | 3.05 mm | 0 m/s | 0 W/m² | - |
| 1778031010 | 8.33° C | 94% | 1010.5 hPa | 3.56 mm | 0.45 m/s, 252° | 0 W/m² | - |
| 1778030706 | 8.33° C | 94% | 1010.3 hPa | 3.05 mm | 0.45 m/s, 234° | 0 W/m² | - |
| 1778030403 | 8.33° C | 94% | 1010 hPa | 3.05 mm | 0.89 m/s, 238° | 0 W/m² | - |
| 1778030100 | 8.33° C | 94% | 1010.4 hPa | 3.05 mm | 0.45 m/s, 254° | 0 W/m² | - |
| 1778029796 | 8.33° C | 94% | 1010.3 hPa | 3.05 mm | 0.45 m/s, 250° | 0 W/m² | - |
| 1778029496 | 8.89° C | 94% | 1010.2 hPa | 3.05 mm | 0.89 m/s, 218° | 0 W/m² | - |
| 1778029191 | 8.89° C | 93% | 1010.4 hPa | 3.05 mm | 0.89 m/s, 244° | 0 W/m² | - |
| 1778028889 | 8.89° C | 93% | 1010.3 hPa | 1.78 mm | 0 m/s | 0 W/m² | - |
| 1778028584 | 8.89° C | 93% | 1010.2 hPa | 1.27 mm | 0.45 m/s, 293° | 0 W/m² | - |
| 1778028283 | 8.89° C | 93% | 1010.1 hPa | 3.05 mm | 0 m/s | 0 W/m² | - |
| 1778027978 | 8.89° C | 93% | 1010.3 hPa | 3.05 mm | 0 m/s | 0 W/m² | - |
| 1778027675 | 8.89° C | 92% | 1010.5 hPa | 3.05 mm | 0.45 m/s, 254° | 0 W/m² | - |
| 1778027371 | 8.89° C | 92% | 1010.2 hPa | 3.05 mm | 0 m/s | 0 W/m² | - |
| 1778027067 | 8.89° C | 92% | 1010.4 hPa | 3.56 mm | 0 m/s | 0 W/m² | - |
| 1778026763 | 8.89° C | 92% | 1010.1 hPa | 3.05 mm | 0.45 m/s, 267° | 0 W/m² | - |
| 1778026460 | 8.89° C | 91% | 1010.1 hPa | 3.05 mm | 0.45 m/s, 277° | 0 W/m² | - |
| 1778026158 | 8.89° C | 91% | 1009.9 hPa | 3.05 mm | 0.89 m/s, 289° | 0 W/m² | - |
| 1778025855 | 8.89° C | 91% | 1009.9 hPa | 3.05 mm | 0.89 m/s, 272° | 0 W/m² | - |
* Rain latest hour (hover to see other rain measurements)
** Current wind speed in m/s (hover to see current wind gust speed)